Lincoln, NE

2:55 PM CDT on September 25, 2016 (GMT -0500)
Lincoln Municipal

Weather History for KLNK - May, 2012

Change the Weather History Date:

Friday, May 4, 2012

  Actual Average Record
Temperature  
Mean Temperature 76 °F 58 °F  
Max Temperature 90 °F 70 °F 91 °F (1952)
Min Temperature 61 °F 46 °F 30 °F (1997)
Degree Days  
Heating Degree Days 0 8  
Month to date heating degree days 0 33  
Since 1 July heating degree days 5014 5926  
Cooling Degree Days 11 1  
Month to date cooling degree days 29 4  
Year to date cooling degree days 83 18  
Growing Degree Days 26 (Base 50)    
Moisture  
Dew Point 67 °F    
Average Humidity 71    
Maximum Humidity 100    
Minimum Humidity 41    
Precipitation  
Precipitation 0.00 in 0.14 in 2.47 in (1959)
Month to date precipitation 1.07 0.52  
Year to date precipitation 7.71 6.57  
Snow  
Snow 0.00 in 0.10 in - ()
Month to date snowfall 0.0 0.1  
Since 1 July snowfall 18.8 26.0  
Snow Depth 0.00 in    
Sea Level Pressure  
Sea Level Pressure 29.79 in    
Wind  
Wind Speed 7 mph (ESE)    
Max Wind Speed 17 mph    
Max Gust Speed 21 mph    
Visibility 4 miles    
Events Fog    
T = Trace of Precipitation, MM = Missing Value Source: NWS Daily Summary

Daily Weather History Graph

Daily Weather History Graph

Search for Another Location

Airport or City:

Trip Planner

Search our weather history database for the weather conditions in past years. The results will help you decide how hot, cold, wet, or windy it might be!

Date:

Astronomy

May. 04, 2012 Rise Set
Actual Time 6:21 AM CDT 8:27 PM CDT
Civil Twilight 5:50 AM CDT 8:57 PM CDT
Nautical Twilight 5:14 AM CDT 9:34 PM CDT
Astronomical Twilight 4:33 AM CDT 10:14 PM CDT
Moon 7:06 PM CDT (5/4) 5:03 AM CDT (5/4)
Length of Visible Light 15h 06m
Length of Day
14h 06m
Waxing Gibbous, 97% of the Moon is Illuminated
May 4
Waxing Gibbous
May 5
Full
May 12
Last Quarter
May 20
New
May 28
First Quarter

Hourly Weather History & Observations

Time (CDT) Temp. Heat Index Dew Point Humidity Pressure Visibility Wind Dir Wind Speed Gust Speed Precip Events Conditions
12:54 AM 66.9 °F - 66.0 °F 97% 29.79 in 5.0 mi South 4.6 mph - N/A   Clear
1:54 AM 69.1 °F - 66.9 °F 93% 29.79 in 6.0 mi Calm Calm - N/A   Clear
2:54 AM 64.9 °F - 64.0 °F 97% 29.78 in 4.0 mi NNE 3.5 mph - N/A   Clear
3:54 AM 66.0 °F - 66.0 °F 100% 29.79 in 3.0 mi Calm Calm - N/A   Clear
4:32 AM 64.4 °F - 64.4 °F 100% 29.82 in 2.5 mi Calm Calm - N/A   Clear
4:36 AM 62.6 °F - 62.6 °F 100% 29.82 in 0.8 mi Calm Calm - N/A   Mist
4:47 AM 62.6 °F - 62.6 °F 100% 29.82 in 0.2 mi Calm Calm - N/A Fog Fog
4:54 AM 61.0 °F - 61.0 °F 100% 29.80 in 0.2 mi Calm Calm - N/A Fog Fog
5:10 AM 62.6 °F - 62.6 °F 100% 29.83 in 0.2 mi North 5.8 mph - N/A Fog Fog
5:21 AM 62.6 °F - 62.6 °F 100% 29.82 in 1.0 mi North 5.8 mph - N/A   Mist
5:39 AM 62.6 °F - 62.6 °F 100% 29.83 in 1.5 mi NNE 3.5 mph - N/A   Scattered Clouds
5:54 AM 64.0 °F - 64.0 °F 100% 29.81 in 1.2 mi East 3.5 mph - N/A   Mostly Cloudy
6:25 AM 64.4 °F - 64.4 °F 100% 29.83 in 0.5 mi NNE 3.5 mph - N/A Fog Fog
6:51 AM 66.2 °F - 66.2 °F 100% 29.84 in 0.2 mi ENE 5.8 mph - N/A Fog Fog
6:54 AM 66.0 °F - 66.0 °F 100% 29.81 in 0.2 mi ENE 5.8 mph - N/A Fog Fog
7:10 AM 66.2 °F - 66.2 °F 100% 29.83 in 0.2 mi NE 4.6 mph - N/A Fog Fog
7:17 AM 66.2 °F - 66.2 °F 100% 29.83 in 0.5 mi East 4.6 mph - N/A Fog Fog
7:28 AM 66.2 °F - 66.2 °F 100% 29.83 in 1.0 mi East 5.8 mph - N/A   Overcast
7:31 AM 66.2 °F - 66.2 °F 100% 29.82 in 0.2 mi East 3.5 mph - N/A Fog Fog
7:33 AM 66.2 °F - 66.2 °F 100% 29.82 in 0.1 mi ENE 3.5 mph - N/A Fog Fog
7:54 AM 66.9 °F - 66.9 °F 100% 29.80 in 0.1 mi ESE 8.1 mph - N/A Fog Fog
8:51 AM 68.0 °F - 68.0 °F 100% 29.82 in 0.5 mi SSE 5.8 mph - N/A Fog Fog
8:54 AM 68.0 °F - 68.0 °F 100% 29.80 in 0.5 mi SSE 4.6 mph - N/A Fog Fog
9:19 AM 69.8 °F - 69.8 °F 100% 29.82 in 1.0 mi SE 3.5 mph - N/A   Overcast
9:54 AM 69.1 °F - 69.1 °F 100% 29.80 in 1.8 mi Calm Calm - N/A   Overcast
10:02 AM 69.8 °F - 69.8 °F 100% 29.83 in 2.0 mi SSE 3.5 mph - N/A   Overcast
10:43 AM 71.6 °F - 69.8 °F 94% 29.83 in 3.0 mi Calm Calm - N/A   Overcast
10:54 AM 73.0 °F - 70.0 °F 90% 29.80 in 3.0 mi East 3.5 mph - N/A   Overcast
11:29 AM 75.2 °F - 69.8 °F 83% 29.83 in 5.0 mi Calm Calm - N/A   Haze
11:54 AM 77.0 °F - 71.1 °F 82% 29.80 in 5.0 mi Variable 4.6 mph - N/A   Haze
12:19 PM 78.8 °F - 71.6 °F 78% 29.82 in 6.0 mi ESE 6.9 mph - N/A   Haze
12:31 PM 78.8 °F - 69.8 °F 74% 29.82 in 7.0 mi Variable 5.8 mph - N/A   Scattered Clouds
12:54 PM 81.0 °F 84.9 °F 71.1 °F 72% 29.78 in 7.0 mi East 8.1 mph - N/A   Clear
1:54 PM 84.9 °F 91.4 °F 73.0 °F 67% 29.77 in 8.0 mi SE 10.4 mph - N/A   Scattered Clouds
2:54 PM 86.0 °F 91.5 °F 71.1 °F 61% 29.73 in 10.0 mi SE 8.1 mph - N/A   Partly Cloudy
3:54 PM 89.1 °F 94.1 °F 70.0 °F 53% 29.70 in 10.0 mi SE 13.8 mph - N/A   Scattered Clouds
4:54 PM 89.1 °F 91.0 °F 64.9 °F 45% 29.70 in 10.0 mi SSE 11.5 mph - N/A   Clear
5:54 PM 89.1 °F 90.0 °F 63.0 °F 42% 29.69 in 10.0 mi SSW 11.5 mph - N/A   Clear
6:54 PM 86.0 °F 88.2 °F 66.2 °F 51% 29.71 in 10.0 mi South 11.5 mph - N/A   Clear
7:54 PM 81.0 °F 84.1 °F 69.1 °F 67% 29.72 in 10.0 mi South 5.8 mph - N/A   Clear
8:54 PM 82.0 °F 84.5 °F 66.9 °F 60% 29.74 in 10.0 mi ESE 6.9 mph - N/A   Clear
9:54 PM 81.0 °F 84.1 °F 69.1 °F 67% 29.77 in 10.0 mi ESE 11.5 mph - N/A   Clear
10:54 PM 79.0 °F - 69.1 °F 72% 29.76 in 10.0 mi SE 8.1 mph - N/A   Clear
11:54 PM 77.0 °F - 69.1 °F 76% 29.77 in 10.0 mi SSE 9.2 mph - N/A   Clear